GW2692 Weather Reports


time (UTC)temp
C
wind
direction
speed
KPH
gust
KPH
rain 1hr
cm
rain 24hr
cm
rain mn
cm
humidity
%
barometer
mb
20260510020200 13 147 3.2 8.0 0.00 0.00 0.00 75 966.9
20260510015659 13 149 3.2 4.8 0.00 0.00 0.00 73 966.8
20260510015159 14 168 3.2 4.8 0.00 0.00 0.00 72 966.8
20260510014700 14 159 4.8 8.0 0.00 0.00 0.00 72 966.6
20260510014200 14 158 3.2 8.0 0.00 0.00 0.00 72 966.6
20260510013200 15 166 4.8 9.7 0.00 0.00 0.00 70 966.4
20260510012700 15 166 6.4 9.7 0.00 0.00 0.00 68 966.3
20260510012200 15 155 3.2 4.8 0.00 0.00 0.00 68 966.3
20260510011700 15 209 1.6 3.2 0.00 0.00 0.00 66 966.2
20260510011200 15 199 3.2 4.8 0.00 0.00 0.00 66 966.2
20260510010659 16 288 1.6 8.0 0.00 0.00 0.00 63 966.2
20260510010200 16 163 3.2 8.0 0.00 0.00 0.00 60 966.0
20260510005700 16 164 3.2 4.8 0.00 0.00 0.00 58 965.9
20260510005200 17 147 1.6 3.2 0.00 0.00 0.00 56 965.8
20260510004700 17 148 3.2 4.8 0.00 0.00 0.00 55 965.7
20260510004200 17 140 1.6 3.2 0.00 0.00 0.00 54 965.6
20260510003200 18 133 1.6 3.2 0.00 0.00 0.00 54 965.4
20260510002700 18 165 1.6 3.2 0.00 0.00 0.00 52 965.3
20260510002200 19 121 1.6 3.2 0.00 0.00 0.00 50 965.2
20260510001659 19 129 1.6 3.2 0.00 0.00 0.00 49 965.1
20260510000700 20 121 1.6 1.6 0.00 0.00 0.00 49 965.0
20260510000200 20 118 0.0 1.6 0.00 0.00 0.00 47 965.1
20260509235200 21 24 0.0 1.6 0.00 0.00 0.00 52 965.0
20260509234700 21 122 0.0 1.6 0.00 0.00 0.00 52 965.0
20260509234200 21 325 0.0 3.2 0.00 0.00 0.00 52 965.0
20260509233701 22 67 0.0 4.8 0.00 0.00 0.00 48 964.9
20260509233200 22 94 4.8 8.0 0.00 0.00 0.00 47 964.9
20260509232700 22 144 3.2 4.8 0.00 0.00 0.00 47 964.9
20260509232200 23 129 1.6 3.2 0.00 0.00 0.00 46 964.9
20260509231700 23 9 1.6 3.2 0.00 0.00 0.00 44 964.8
20260509231200 23 159 1.6 4.8 0.00 0.00 0.00 43 964.7
20260509230700 23 31 1.6 4.8 0.00 0.00 0.00 45 964.6
20260509230200 23 36 1.6 4.8 0.00 0.00 0.00 44 964.6
20260509225200 23 57 1.6 8.0 0.00 0.00 0.00 44 964.5
20260509224200 22 34 1.6 3.2 0.00 0.00 0.00 47 964.6
20260509223700 22 118 3.2 8.0 0.00 0.00 0.00 46 964.6
20260509222700 23 65 1.6 3.2 0.00 0.00 0.00 45 964.7
20260509222200 22 359 1.6 8.0 0.00 0.00 0.00 44 964.6
20260509221700 22 23 3.2 4.8 0.00 0.00 0.00 44 964.5
20260509221159 22 243 1.6 3.2 0.00 0.00 0.00 44 964.6
20260509220700 22 356 1.6 8.0 0.00 0.00 0.00 44 964.5
20260509220200 22 52 1.6 3.2 0.00 0.00 0.00 44 964.5
20260509215701 22 297 1.6 4.8 0.00 0.00 0.00 42 964.5
20260509215200 22 62 1.6 3.2 0.00 0.00 0.00 44 964.5
20260509214700 22 8 1.6 4.8 0.00 0.00 0.00 46 964.5
20260509214200 22 20 1.6 3.2 0.00 0.00 0.00 44 964.5
20260509213700 22 348 1.6 4.8 0.00 0.00 0.00 42 964.4
20260509213200 22 88 1.6 9.7 0.00 0.00 0.00 41 964.4
20260509212700 22 86 3.2 8.0 0.00 0.00 0.00 43 964.3
20260509212159 22 9 1.6 3.2 0.00 0.00 0.00 42 964.3
20260509211700 22 77 1.6 4.8 0.00 0.00 0.00 41 964.2
20260509211202 22 37 1.6 4.8 0.00 0.00 0.00 42 964.2
20260509210700 22 76 1.6 4.8 0.00 0.00 0.00 44 964.2
20260509210200 22 72 1.6 8.0 0.00 0.00 0.00 44 964.2
20260509205700 22 72 1.6 4.8 0.00 0.00 0.00 44 964.1
20260509205201 22 93 3.2 4.8 0.00 0.00 0.00 44 964.1
20260509204700 22 114 3.2 4.8 0.00 0.00 0.00 45 964.1
20260509204200 22 111 3.2 8.0 0.00 0.00 0.00 45 964.1
20260509203700 22 94 3.2 8.0 0.00 0.00 0.00 44 964.1
20260509202700 23 78 3.2 9.7 0.00 0.00 0.00 42 964.1
20260509202200 23 99 4.8 8.0 0.00 0.00 0.00 42 964.0
20260509201700 23 87 4.8 12.9 0.00 0.00 0.00 42 964.0
20260509201200 24 113 3.2 9.7 0.00 0.00 0.00 40 963.9
20260509200200 23 56 3.2 8.0 0.00 0.00 0.00 40 963.9
20260509195700 23 4 1.6 12.9 0.00 0.00 0.00 39 963.9
20260509194700 23 101 3.2 9.7 0.00 0.00 0.00 42 964.1
20260509194200 23 55 4.8 9.7 0.00 0.00 0.00 40 964.3
20260509193200 22 89 3.2 8.0 0.00 0.00 0.00 40 964.3
20260509192701 22 74 4.8 9.7 0.00 0.00 0.00 42 964.3
20260509192200 22 63 3.2 8.0 0.00 0.00 0.00 42 964.5
20260509191700 23 71 3.2 9.7 0.00 0.00 0.00 42 964.5
20260509191200 23 87 3.2 4.8 0.00 0.00 0.00 41 964.5
20260509190700 23 11 1.6 9.7 0.00 0.00 0.00 40 964.6
20260509190200 23 90 3.2 4.8 0.00 0.00 0.00 41 964.7
20260509185701 22 34 3.2 11.3 0.00 0.00 0.00 44 964.6
20260509185201 22 79 3.2 11.3 0.00 0.00 0.00 42 964.6
20260509184700 22 158 4.8 12.9 0.00 0.00 0.00 42 964.8
20260509183701 22 35 3.2 9.7 0.00 0.00 0.00 42 964.9
20260509181700 22 101 3.2 12.9 0.00 0.00 0.00 43 965.0
20260509181200 21 116 3.2 9.7 0.00 0.00 0.00 45 965.0
20260509180659 21 79 1.6 11.3 0.00 0.00 0.00 47 965.2
20260509180200 21 104 4.8 9.7 0.00 0.00 0.00 49 965.3
20260509175700 21 119 6.4 9.7 0.00 0.00 0.00 48 965.4
20260509175159 21 108 3.2 4.8 0.00 0.00 0.00 48 965.4
20260509174659 20 111 4.8 9.7 0.00 0.00 0.00 48 965.7
20260509173200 20 98 3.2 4.8 0.00 0.00 0.00 51 965.7
20260509172700 20 355 1.6 4.8 0.00 0.00 0.00 50 965.8
20260509172200 20 84 1.6 8.0 0.00 0.00 0.00 50 965.7
20260509171701 20 116 4.8 8.0 0.00 0.00 0.00 50 965.8
20260509171200 20 89 3.2 3.2 0.00 0.00 0.00 51 966.0
20260509170700 20 136 0.0 1.6 0.00 0.00 0.00 49 966.1
20260509170200 20 39 1.6 1.6 0.00 0.00 0.00 50 966.1
20260509165700 20 343 1.6 3.2 0.00 0.00 0.00 50 966.2
20260509165200 20 48 1.6 3.2 0.00 0.00 0.00 50 966.3
20260509164700 20 74 1.6 4.8 0.00 0.00 0.00 50 966.3
20260509163659 20 141 3.2 9.7 0.00 0.00 0.00 48 966.2
20260509162200 20 49 1.6 4.8 0.00 0.00 0.00 48 965.9
20260509161700 20 29 3.2 9.7 0.00 0.00 0.00 50 966.0
20260509161200 20 61 1.6 4.8 0.00 0.00 0.00 51 966.1
20260509160700 20 98 3.2 8.0 0.00 0.00 0.00 50 966.0
20260509160201 20 78 3.2 4.8 0.00 0.00 0.00 50 966.0
20260509155200 19 78 3.2 4.8 0.00 0.00 0.00 51 966.1
20260509153200 19 105 1.6 8.0 0.00 0.00 0.00 50 966.0
20260509152700 20 108 4.8 8.0 0.00 0.00 0.00 51 965.9
20260509151700 19 32 1.6 4.8 0.00 0.00 0.00 51 965.9
20260509151159 19 106 4.8 8.0 0.00 0.00 0.00 49 966.0
20260509150701 19 47 1.6 3.2 0.00 0.00 0.00 49 966.0
20260509150200 19 101 3.2 4.8 0.00 0.00 0.00 50 966.1
20260509145700 19 76 1.6 4.8 0.00 0.00 0.00 51 966.1
20260509145201 19 126 3.2 4.8 0.00 0.00 0.00 51 966.1
20260509144700 19 352 1.6 4.8 0.00 0.00 0.00 52 966.1
20260509144200 19 80 3.2 8.0 0.00 0.00 0.00 52 966.0
20260509143201 18 118 3.2 8.0 0.00 0.00 0.00 52 965.8
20260509142700 18 160 4.8 9.7 0.00 0.00 0.00 53 965.9
20260509142200 18 152 8.0 9.7 0.00 0.00 0.00 53 966.0
20260509141201 17 243 3.2 8.0 0.00 0.00 0.00 56 966.3
20260509140700 17 122 4.8 9.7 0.00 0.00 0.00 56 966.4
20260509140200 16 79 1.6 4.8 0.00 0.00 0.00 57 966.6
20260509135200 16 313 1.6 4.8 0.00 0.00 0.00 56 966.7
20260509134700 16 124 1.6 8.0 0.00 0.00 0.00 56 966.7
20260509134200 16 170 3.2 8.0 0.00 0.00 0.00 56 966.9
20260509133700 16 108 1.6 4.8 0.00 0.00 0.00 57 966.9
20260509133201 16 138 1.6 4.8 0.00 0.00 0.00 56 966.9
20260509132700 16 108 3.2 9.7 0.00 0.00 0.00 56 967.0
20260509132200 16 92 1.6 4.8 0.00 0.00 0.00 56 967.0
20260509131700 15 115 1.6 8.0 0.00 0.00 0.00 56 967.0
20260509130200 15 280 1.6 4.8 0.00 0.00 0.00 56 966.7
20260509125700 15 171 1.6 4.8 0.00 0.00 0.00 57 966.8
20260509124700 15 131 1.6 4.8 0.00 0.00 0.00 56 966.7
20260509123700 15 175 1.6 9.7 0.00 0.00 0.00 58 966.7
20260509123200 15 188 3.2 9.7 0.00 0.00 0.00 57 966.7
20260509122700 14 72 1.6 4.8 0.00 0.00 0.00 58 966.8
20260509122200 14 130 1.6 4.8 0.00 0.00 0.00 59 966.8
20260509121701 14 186 1.6 4.8 0.00 0.00 0.00 58 966.9
20260509121200 14 273 1.6 3.2 0.00 0.00 0.00 58 966.9
20260509120200 14 167 3.2 4.8 0.00 0.00 0.00 58 966.9
20260509115700 14 120 1.6 3.2 0.00 0.00 0.00 58 966.9
20260509115200 13 128 1.6 3.2 0.00 0.00 0.00 58 966.9
20260509114700 13 168 1.6 4.8 0.00 0.00 0.00 57 966.9
20260509114201 13 114 1.6 3.2 0.00 0.00 0.00 59 966.9
20260509113701 13 86 1.6 4.8 0.00 0.00 0.00 60 966.9
20260509112700 13 115 1.6 3.2 0.00 0.00 0.00 61 966.9
20260509112200 13 135 1.6 3.2 0.00 0.00 0.00 60 966.9
20260509111700 13 128 1.6 3.2 0.00 0.00 0.00 59 966.9
20260509111159 13 150 1.6 3.2 0.00 0.00 0.00 58 966.8
20260509110200 13 148 3.2 4.8 0.00 0.00 0.00 61 966.8
20260509105659 13 147 1.6 3.2 0.00 0.00 0.00 60 966.9
20260509104700 13 156 1.6 3.2 0.00 0.00 0.00 61 966.9
20260509103700 13 113 1.6 3.2 0.00 0.00 0.00 60 966.8
20260509103200 13 157 1.6 3.2 0.00 0.00 0.00 59 966.9
20260509102700 12 141 1.6 3.2 0.00 0.00 0.00 55 966.9
20260509102200 12 193 1.6 3.2 0.00 0.00 0.00 59 966.9
20260509101700 12 166 1.6 3.2 0.00 0.00 0.00 60 966.9
20260509100700 12 165 3.2 4.8 0.00 0.00 0.00 60 966.9
20260509100200 12 167 1.6 4.8 0.00 0.00 0.00 60 966.9
20260509095700 12 146 3.2 4.8 0.00 0.00 0.00 58 967.0
20260509095201 12 115 1.6 3.2 0.00 0.00 0.00 60 967.0
20260509094700 12 149 3.2 3.2 0.00 0.00 0.00 59 966.9
20260509094200 12 152 1.6 3.2 0.00 0.00 0.00 58 966.9
20260509093201 12 157 3.2 4.8 0.00 0.00 0.00 58 967.0
20260509092700 12 164 3.2 4.8 0.00 0.00 0.00 57 967.1
20260509092200 12 157 3.2 4.8 0.00 0.00 0.00 57 967.2
20260509091700 12 159 3.2 4.8 0.00 0.00 0.00 57 967.3
20260509091200 12 158 3.2 4.8 0.00 0.00 0.00 56 967.3
20260509090701 12 157 3.2 4.8 0.00 0.00 0.00 56 967.3
20260509085700 12 139 1.6 3.2 0.00 0.00 0.00 56 967.2
20260509085200 13 159 1.6 3.2 0.00 0.00 0.00 55 967.3
20260509084700 13 192 1.6 3.2 0.00 0.00 0.00 56 967.3
20260509084200 13 197 1.6 3.2 0.00 0.00 0.00 54 967.3
20260509083700 13 159 1.6 3.2 0.00 0.00 0.00 56 967.3
20260509083200 13 122 1.6 3.2 0.00 0.00 0.00 55 967.3
20260509082700 13 180 1.6 3.2 0.00 0.00 0.00 54 967.3
20260509082200 13 164 1.6 3.2 0.00 0.00 0.00 54 967.4
20260509081200 13 176 1.6 3.2 0.00 0.00 0.00 55 967.4
20260509080701 13 153 1.6 4.8 0.00 0.00 0.00 52 967.4
20260509080200 13 87 1.6 4.8 0.00 0.00 0.00 51 967.4
20260509075700 13 155 1.6 3.2 0.00 0.00 0.00 50 967.4
20260509075200 13 162 1.6 3.2 0.00 0.00 0.00 52 967.4
20260509074700 13 160 1.6 4.8 0.00 0.00 0.00 49 967.5
20260509073700 13 80 1.6 8.0 0.00 0.00 0.00 51 967.6
20260509073201 13 210 1.6 4.8 0.00 0.00 0.00 51 967.6
20260509072700 13 108 1.6 3.2 0.00 0.00 0.00 51 967.7
20260509072200 13 131 1.6 3.2 0.00 0.00 0.00 52 967.7
20260509071700 13 92 1.6 3.2 0.00 0.00 0.00 51 967.7
20260509071201 13 250 1.6 3.2 0.00 0.00 0.00 50 967.7
20260509070700 13 156 1.6 3.2 0.00 0.00 0.00 51 967.6
20260509070201 13 120 1.6 4.8 0.00 0.00 0.00 50 967.7
20260509065700 13 166 1.6 9.7 0.00 0.00 0.00 50 967.7
20260509065200 13 224 1.6 4.8 0.00 0.00 0.00 53 967.7
20260509064701 13 112 1.6 4.8 0.00 0.00 0.00 51 967.7
20260509064200 13 293 1.6 4.8 0.00 0.00 0.00 51 967.7
20260509062700 13 107 1.6 4.8 0.00 0.00 0.00 54 967.9
20260509062200 13 150 1.6 3.2 0.00 0.00 0.00 57 968.0
20260509061701 13 136 1.6 3.2 0.00 0.00 0.00 54 968.0
20260509060700 12 177 1.6 4.8 0.00 0.00 0.00 56 968.1
20260509060200 12 113 1.6 3.2 0.00 0.00 0.00 56 968.2
20260509055700 12 150 1.6 3.2 0.00 0.00 0.00 58 968.2
20260509055201 12 134 3.2 4.8 0.00 0.00 0.00 58 968.3
20260509054700 11 157 3.2 4.8 0.00 0.00 0.00 58 968.3
20260509054159 11 159 3.2 4.8 0.00 0.00 0.00 59 968.4
20260509053700 11 151 3.2 3.2 0.00 0.00 0.00 59 968.4
20260509053200 11 161 3.2 3.2 0.00 0.00 0.00 60 968.4
20260509052700 11 160 3.2 3.2 0.00 0.00 0.00 59 968.4
20260509051700 12 154 3.2 4.8 0.00 0.00 0.00 58 968.5
20260509051200 12 163 3.2 4.8 0.00 0.00 0.00 58 968.6
20260509050701 12 146 3.2 4.8 0.00 0.00 0.00 57 968.6
20260509045700 12 171 1.6 3.2 0.00 0.00 0.00 58 968.6
20260509045200 12 99 1.6 3.2 0.00 0.00 0.00 57 968.5
20260509044701 12 169 1.6 3.2 0.00 0.00 0.00 57 968.4
20260509044200 12 167 1.6 3.2 0.00 0.00 0.00 58 968.4
20260509043700 12 130 1.6 3.2 0.00 0.00 0.00 56 968.4
20260509043201 12 132 1.6 4.8 0.00 0.00 0.00 56 968.4
20260509042701 12 138 1.6 3.2 0.00 0.00 0.00 58 968.4
20260509042200 12 190 1.6 3.2 0.00 0.00 0.00 56 968.3
20260509041700 12 140 1.6 3.2 0.00 0.00 0.00 55 968.3
20260509041200 12 156 3.2 4.8 0.00 0.00 0.00 55 968.3
20260509040700 13 174 3.2 4.8 0.00 0.00 0.00 57 968.3
20260509040200 13 172 1.6 4.8 0.00 0.00 0.00 55 968.4
20260509035701 13 151 1.6 4.8 0.00 0.03 0.00 54 968.3
20260509035200 13 176 3.2 4.8 0.00 0.03 0.00 56 968.3
20260509034700 13 210 1.6 3.2 0.00 0.03 0.00 54 968.4
20260509034200 13 125 1.6 3.2 0.00 0.03 0.00 54 968.4
20260509033700 13 133 1.6 4.8 0.00 0.03 0.00 55 968.4
20260509033200 13 174 1.6 8.0 0.00 0.03 0.00 55 968.3
20260509032700 13 124 1.6 3.2 0.00 0.03 0.00 54 968.3
20260509032200 13 135 1.6 4.8 0.00 0.03 0.00 54 968.4
20260509031700 12 97 1.6 4.8 0.00 0.03 0.00 56 968.4
20260509030700 12 150 1.6 3.2 0.00 0.03 0.00 56 968.4
20260509030200 12 161 3.2 4.8 0.00 0.03 0.00 56 968.4
20260509025700 13 161 3.2 3.2 0.00 0.03 0.00 56 968.5
20260509025200 13 157 3.2 3.2 0.00 0.03 0.00 56 968.6
20260509024701 13 150 3.2 4.8 0.00 0.03 0.00 55 968.6
20260509024200 13 182 3.2 4.8 0.00 0.03 0.00 55 968.6
20260509023700 13 151 3.2 4.8 0.00 0.03 0.00 55 968.6
20260509023200 13 172 1.6 4.8 0.00 0.03 0.00 54 968.6
20260509022700 14 169 3.2 4.8 0.00 0.03 0.00 54 968.6
20260509022200 14 165 1.6 4.8 0.00 0.03 0.00 54 968.7
20260509021701 14 172 1.6 3.2 0.00 0.03 0.00 51 968.6
20260509021200 15 138 1.6 4.8 0.00 0.03 0.00 50 968.5
20260509020701 15 170 1.6 4.8 0.00 0.03 0.00 51 968.5